Date String (YYYY-MM-DD hh:mm:ss) UTC,Instrument flags,Ambient pressure (hPa),Sample flow (lpm),Bypass flow (lpm),Sample temperature (°C),Ambient temperature (°C),ASC tube jacket temperature (°C),LED temperature (°C),Box temperature (°C),Sample RH (%),Span deviation,Mass concentration (μg/m³),Mass concentration (μg/m³),Mass concentration (μg/m³)
DateTimeUTC,F1_M11,P_M11,Q1_M11,Q2_M11,T1_M11,T2_M11,T3_M11,T4_M11,T5_M11,U1_M11,ZSPAN_M11,X2_M11,X0_M11,X1_M11
2022-01-13 02:00:00,,0831.4,4.99,0.00,26.6,25.9,00.0,35.5,28.4,10.2,0000.0,0000.03,0001.16,0000.00
2022-01-13 02:01:00,,0831.4,5.00,0.00,26.6,25.9,00.0,35.5,28.4,10.2,0000.0,0000.03,0001.18,0000.00
2022-01-13 02:02:00,,0831.4,5.01,0.00,26.6,25.9,00.0,35.5,28.4,10.3,0000.0,0000.03,0001.18,0000.00
2022-01-13 02:03:00,,0831.4,5.00,0.00,26.6,25.9,00.0,35.5,28.4,10.2,0000.0,0000.03,0001.18,0000.00
2022-01-13 02:04:00,,0831.4,5.00,0.00,26.6,25.9,00.0,35.6,28.4,10.2,0000.0,0000.03,0001.18,0000.00
2022-01-13 02:05:00,,0831.4,4.99,0.00,26.6,25.9,00.0,35.6,28.4,10.2,0000.0,0000.03,0001.18,0000.00
2022-01-13 02:06:00,,0831.4,5.01,0.00,26.6,25.9,00.0,35.6,28.4,10.1,0000.0,0000.03,0001.18,0000.00
2022-01-13 02:07:00,,0831.4,5.00,0.00,26.6,25.9,00.0,35.6,28.4,10.2,0000.0,0000.03,0001.17,0000.00
2022-01-13 02:08:00,,0831.4,5.00,0.00,26.6,25.9,00.0,35.6,28.4,10.3,0000.0,0000.03,0000.52,0000.00
2022-01-13 02:09:00,,0831.4,4.99,0.00,26.6,25.9,00.0,35.6,28.4,10.3,0000.0,0000.05,0000.32,0000.01
2022-01-13 02:10:00,,0831.4,5.00,0.00,26.6,25.9,00.0,35.6,28.4,10.2,0000.0,0000.05,0000.32,0000.01
2022-01-13 02:11:00,,0831.4,5.01,0.00,26.6,25.9,00.0,35.6,28.4,10.2,0000.0,0000.05,0000.24,0000.00
2022-01-13 02:12:00,,0831.4,4.99,0.00,26.6,25.9,00.0,35.6,28.4,10.2,0000.0,0000.06,0000.69,0000.00
2022-01-13 02:13:00,,0831.4,5.01,0.00,26.6,25.9,00.0,35.6,28.4,10.4,0000.0,0000.07,0001.57,0000.00
2022-01-13 02:14:00,,0831.3,4.99,0.00,26.6,25.9,00.0,35.6,28.4,10.5,0000.0,0000.12,0001.70,0000.01
2022-01-13 02:15:00,,0831.4,5.02,0.00,26.6,25.9,00.0,35.6,28.4,10.5,0000.0,0000.14,0001.87,0000.01
2022-01-13 02:16:00,,0831.3,4.98,0.00,26.6,25.8,00.0,35.6,28.4,10.5,0000.0,0000.17,0002.05,0000.01
2022-01-13 02:17:00,,0831.4,5.02,0.00,26.6,25.8,00.0,35.6,28.4,10.7,0000.0,0000.17,0002.09,0000.01
2022-01-13 02:18:00,,0831.4,4.99,0.00,26.6,25.8,00.0,35.6,28.4,10.7,0000.0,0000.19,0002.11,0000.01
2022-01-13 02:19:00,,0831.4,5.01,0.00,26.6,25.8,00.0,35.6,28.4,10.8,0000.0,0000.19,0002.00,0000.01
2022-01-13 02:20:00,,0831.4,4.98,0.00,26.6,25.8,00.0,35.6,28.4,10.9,0000.0,0000.18,0001.98,0000.01
2022-01-13 02:21:00,,0831.4,5.02,0.00,26.6,25.8,00.0,35.6,28.3,10.9,0000.0,0000.18,0001.98,0000.01
2022-01-13 02:22:00,,0831.2,4.99,0.00,26.6,25.7,00.0,35.6,28.3,10.9,0000.0,0000.18,0002.76,0000.01
2022-01-13 02:23:00,,0831.1,4.99,0.00,26.6,25.7,00.0,35.6,28.3,10.9,0000.0,0000.17,0003.52,0000.01
2022-01-13 02:24:00,,0831.2,5.01,0.00,26.6,25.7,00.0,35.6,28.3,10.9,0000.0,0000.16,0002.92,0000.01
2022-01-13 02:25:00,,0831.2,4.99,0.00,26.6,25.7,00.0,35.6,28.3,10.9,0000.0,0000.11,0002.80,0000.01
2022-01-13 02:26:00,,0831.2,5.01,0.00,26.6,25.6,00.0,35.6,28.2,11.0,0000.0,0000.09,0002.64,0000.01
2022-01-13 02:27:00,,0831.1,4.99,0.00,26.5,25.6,00.0,35.6,28.2,11.1,0000.0,0000.06,0002.44,0000.01
2022-01-13 02:28:00,,0831.2,5.01,0.00,26.5,25.6,00.0,35.6,28.2,11.1,0000.0,0000.06,0002.43,0000.01
2022-01-13 02:29:00,,0831.2,5.00,0.00,26.5,25.6,00.0,35.6,28.2,10.9,0000.0,0000.05,0002.41,0000.01
2022-01-13 02:30:00,,0831.2,5.00,0.00,26.5,25.6,00.0,35.6,28.2,11.0,0000.0,0000.03,0002.37,0000.00
2022-01-13 02:31:00,,0831.2,5.00,0.00,26.5,25.5,00.0,35.6,28.2,11.0,0000.0,0000.03,0002.35,0000.00
2022-01-13 02:32:00,,0831.2,5.00,0.00,26.5,25.5,00.0,35.6,28.2,11.2,0000.0,0000.04,0002.36,0000.00
2022-01-13 02:33:00,,0831.2,5.00,0.00,26.5,25.5,00.0,35.6,28.2,11.1,0000.0,0000.04,0001.51,0000.00
2022-01-13 02:34:00,,0831.2,5.00,0.00,26.5,25.5,00.0,35.5,28.2,11.1,0000.0,0000.07,0000.40,0000.00
2022-01-13 02:35:00,,0831.3,5.00,0.00,26.5,25.5,00.0,35.5,28.2,11.1,0000.0,0000.08,0000.30,0000.01
2022-01-13 02:36:00,,0831.2,5.01,0.00,26.5,25.5,00.0,35.5,28.2,11.0,0000.0,0000.09,0000.52,0000.01
2022-01-13 02:37:00,,0831.4,5.01,0.00,26.5,25.5,00.0,35.5,28.2,11.1,0000.0,0000.10,0000.56,0000.01
2022-01-13 02:38:00,,0831.4,4.99,0.00,26.5,25.5,00.0,35.5,28.2,11.0,0000.0,0000.12,0000.67,0000.01
2022-01-13 02:39:00,,0831.4,5.00,0.00,26.4,25.5,00.0,35.5,28.2,10.8,0000.0,0000.12,0000.70,0000.01
2022-01-13 02:40:00,,0831.4,4.99,0.00,26.4,25.5,00.0,35.5,28.1,10.8,0000.0,0000.12,0000.70,0000.01
2022-01-13 02:41:00,,0831.3,5.01,0.00,26.4,25.5,00.0,35.5,28.1,10.6,0000.0,0000.12,0000.70,0000.01
2022-01-13 02:42:00,,0831.2,4.99,0.00,26.4,25.5,00.0,35.5,28.1,10.6,0000.0,0000.11,0000.69,0000.01
2022-01-13 02:43:00,,0831.2,5.01,0.00,26.4,25.5,00.0,35.5,28.1,10.8,0000.0,0000.11,0000.69,0000.01
2022-01-13 02:44:00,,0831.2,4.99,0.00,26.4,25.6,00.0,35.5,28.1,10.6,0000.0,0000.12,0000.67,0000.01
2022-01-13 02:45:00,,0831.3,4.99,0.00,26.4,25.6,00.0,35.5,28.2,10.7,0000.0,0000.09,0000.51,0000.01
2022-01-13 02:46:00,,0831.4,5.02,0.00,26.4,25.6,00.0,35.5,28.2,10.7,0000.0,0000.08,0000.49,0000.01
2022-01-13 02:47:00,,0831.4,4.99,0.00,26.4,25.6,00.0,35.5,28.2,10.9,0000.0,0000.07,0000.29,0000.00
2022-01-13 02:48:00,,0831.3,5.01,0.00,26.4,25.6,00.0,35.5,28.2,10.5,0000.0,0000.06,0000.22,0000.00
2022-01-13 02:49:00,,0831.4,4.99,0.00,26.4,25.6,00.0,35.5,28.2,10.3,0000.0,0000.04,0000.16,0000.00
2022-01-13 02:50:00,,0831.2,5.01,0.00,26.4,25.6,00.0,35.5,28.2,10.3,0000.0,0000.05,0000.20,0000.00
2022-01-13 02:51:00,,0831.3,4.98,0.00,26.4,25.6,00.0,35.5,28.2,10.6,0000.0,0000.05,0000.20,0000.00
2022-01-13 02:52:00,,0831.2,5.02,0.00,26.4,25.6,00.0,35.5,28.2,10.7,0000.0,0000.05,0000.20,0000.00
2022-01-13 02:53:00,,0831.1,4.99,0.00,26.4,25.6,00.0,35.4,28.2,10.7,0000.0,0000.05,0000.20,0000.00
2022-01-13 02:54:00,,0831.1,5.00,0.00,26.4,25.6,00.0,35.4,28.2,10.6,0000.0,0000.05,0000.20,0000.00
2022-01-13 02:55:00,,0831.1,4.99,0.00,26.4,25.6,00.0,35.4,28.2,10.6,0000.0,0000.03,0000.17,0000.00
2022-01-13 02:56:00,,0831.2,5.01,0.00,26.4,25.6,00.0,35.4,28.2,10.5,0000.0,0000.03,0000.40,0000.00
2022-01-13 02:57:00,,0831.2,4.99,0.00,26.4,25.6,00.0,35.4,28.2,10.3,0000.0,0000.03,0000.48,0000.01
2022-01-13 02:58:00,,0831.1,5.01,0.00,26.4,25.7,00.0,35.4,28.2,10.3,0000.0,0000.03,0000.48,0000.01
2022-01-13 02:59:00,,0831.2,5.00,0.00,26.4,25.7,00.0,35.4,28.2,10.4,0000.0,0000.03,0000.49,0000.01
